sat.trackr.live / text

‹ back to catalog

HULIANWANG DIGUI-35

NORAD 64956 · 2025-159A

PAYLOAD ACTIVE UNKNOWN

§ Identity

Operator
Country
PRC
Launch date
2025-07-27
Launch site
TAISC
Launch vehicle
Mass (kg)
RCS (m²)

External: N2YO · Heavens-Above · Gunter

§ Orbital elements

Epoch: 2026-05-25T03:17:40.502976Z

Period
108.73 min
Inclination
86.4924°
Eccentricity
0.0001983
Mean motion
13.24413785 rev/d
Perigee alt
1,166.4 km
Apogee alt
1,169.4 km
Semi-major
7,546.0 km
B*
8.2319e-5
RAAN
290.2207°
Arg perigee
91.6388°
Mean anomaly
268.4973°
Rev number
4,007

§ Raw data

HULIANWANG DIGUI-351 64956U 25159A   26145.13727434  .00000050  00000+0  82319-4 0  99922 64956  86.4924 290.2207 0001983  91.6388 268.4973 13.24413785 40071

JSON: /api/v1/satellites/64956 · /tle

For live sub-satellite position, see the globe view (requires WebGL).

§ Visibility from observer

Set your observer location to see the next 7 days of passes ≥ 10°. The values pass through the URL so the page stays shareable.

No JS? Fill the form by hand. The geolocation button needs JavaScript.